Location: Kershaw
(34.5481°N, 80.5823°W)
Time: 15:00:42
(UTC+00:00)

Vanguard 1 Rocket - Pass Details

Date: 30 September 2022
Orbit: 650 x 4225 km, 34.3° (Epoch: 08 December)

Event Time Altitude Azimuth Distance (km) Brightness Sun altitude
Rises 21:41:47 0° 201° (SSW) 8,412 12.9 16.6°
Reaches altitude 10° 21:49:26 10° 190° (S) 7,412 12.4 15.1°
Maximum altitude 22:08:08 27° 143° (SE) 5,369 11.2 11.3°
Drops below altitude 10° 22:21:52 10° 93° (E) 5,523 10.8 8.6°
Sets 22:26:15 0° 82° (E) 6,045 10.9 7.7°
